Lake Okeechobee Weather Center

Moon Phase Calendar



Lake Okeechobee Water Level
Online Cameras

 


      

Current Conditions in Pahokee
6/14/2024 1:32:02 AM

76°F
Feels Like 77
Clouds
Humidity
91%
Pressure
29.88"
Wind
15.7 mph (S)
Dew Point
73°F
UV Index
0/10 (Low)
Visibility
6 mi

Hourly Forecast

Date & Time Fri, Jun 14
1:00 AM
Fri, Jun 14
2:00 AM
Fri, Jun 14
3:00 AM
Fri, Jun 14
4:00 AM
Fri, Jun 14
5:00 AM
Fri, Jun 14
6:00 AM
Fri, Jun 14
7:00 AM
Fri, Jun 14
8:00 AM
Fri, Jun 14
9:00 AM
Fri, Jun 14
10:00 AM
Fri, Jun 14
11:00 AM
Fri, Jun 14
12:00 PM
Fri, Jun 14
1:00 PM
Fri, Jun 14
2:00 PM
Fri, Jun 14
3:00 PM
Fri, Jun 14
4:00 PM
Fri, Jun 14
5:00 PM
Fri, Jun 14
6:00 PM
Fri, Jun 14
7:00 PM
Fri, Jun 14
8:00 PM
Fri, Jun 14
9:00 PM
Fri, Jun 14
10:00 PM
Fri, Jun 14
11:00 PM
Sat, Jun 15
12:00 AM
Sat, Jun 15
1:00 AM
Sat, Jun 15
2:00 AM
Sat, Jun 15
3:00 AM
Sat, Jun 15
4:00 AM
Sat, Jun 15
5:00 AM
Sat, Jun 15
6:00 AM
Sat, Jun 15
7:00 AM
Sat, Jun 15
8:00 AM
Sat, Jun 15
9:00 AM
Sat, Jun 15
10:00 AM
Sat, Jun 15
11:00 AM
Sat, Jun 15
12:00 PM
Sat, Jun 15
1:00 PM
Sat, Jun 15
2:00 PM
Sat, Jun 15
3:00 PM
Sat, Jun 15
4:00 PM
Sat, Jun 15
5:00 PM
Sat, Jun 15
6:00 PM
Sat, Jun 15
7:00 PM
Sat, Jun 15
8:00 PM
Sat, Jun 15
9:00 PM
Sat, Jun 15
10:00 PM
Sat, Jun 15
11:00 PM
Sun, Jun 16
12:00 AM
Condition
Clouds

Clouds

Clouds

Clouds

Clouds

Clouds

Clouds

Clouds

Clouds

Clouds

Rain

Rain

Rain

Rain

Rain

Rain

Rain

Rain

Rain

Rain

Rain

Rain

Rain

Rain

Clouds

Clouds

Clouds

Clouds

Clouds

Clouds

Clouds

Clouds

Clouds

Clouds

Clouds

Clouds

Clouds

Clouds

Clouds

Rain

Rain

Rain

Rain

Rain

Rain

Clouds

Clouds

Clouds
Temperature 76°F76°F76°F76°F76°F76°F76°F76°F77°F78°F79°F81°F83°F83°F83°F83°F83°F82°F80°F81°F80°F79°F79°F79°F79°F78°F78°F78°F78°F77°F77°F77°F77°F78°F79°F79°F80°F81°F82°F83°F83°F80°F80°F79°F79°F80°F79°F79°F
Feels Like 78°F77°F78°F78°F78°F78°F78°F78°F79°F80°F79°F87°F89°F90°F91°F90°F90°F88°F85°F86°F80°F79°F80°F79°F79°F80°F80°F80°F80°F79°F79°F79°F79°F79°F80°F79°F85°F86°F87°F88°F89°F85°F80°F79°F79°F80°F79°F79°F
Cloudiness 26%27%24%19%15%17%32%38%46%50%67%75%80%83%100%100%100%100%100%100%100%100%100%100%100%100%100%100%100%100%100%100%100%100%100%100%100%100%100%100%100%100%100%100%100%100%100%100%
Visibility 6 mi6 mi6 mi6 mi6 mi6 mi6 mi6 mi6 mi6 mi6 mi6 mi6 mi6 mi6 mi6 mi6 mi6 mi6 mi5 mi6 mi3 mi6 mi6 mi6 mi6 mi6 mi6 mi6 mi6 mi6 mi6 mi6 mi6 mi6 mi6 mi6 mi6 mi6 mi6 mi6 mi4 mi6 mi6 mi6 mi6 mi6 mi6 mi
Precipitation 0%0%0%0%0%0%0%0%0%17%47%71%77%88%92%100%100%100%100%100%100%100%100%100%80%80%0%0%0%6%11%30%1%0%0%7%16%27%19%46%100%100%100%100%85%57%46%38%
Humidity 91%91%90%90%91%92%92%92%91%88%85%81%78%77%77%77%78%79%82%83%85%85%87%86%87%88%88%87%87%88%89%89%89%87%84%82%78%76%74%72%72%79%80%80%79%76%75%76%
Dew Point 73°F73°F73°F73°F74°F74°F74°F74°F74°F74°F74°F75°F75°F75°F75°F75°F75°F75°F74°F75°F75°F75°F74°F74°F75°F75°F74°F74°F74°F74°F74°F74°F74°F73°F73°F73°F73°F73°F73°F73°F73°F73°F73°F73°F72°F71°F71°F71°F
Pressure 29.88"29.88"29.88"29.88"29.88"29.88"29.88"29.91"29.91"29.91"29.91"29.91"29.91"29.88"29.85"29.85"29.85"29.85"29.85"29.88"29.88"29.91"29.91"29.94"29.91"29.91"29.91"29.91"29.91"29.91"29.94"29.94"29.97"29.97"29.97"29.97"29.97"29.94"29.94"29.94"29.94"29.94"29.97"29.97"29.97"30"30"30"
Wind Speed 15.9 mph15.7 mph12.9 mph12.3 mph12.3 mph11.2 mph9.5 mph9.7 mph12 mph9.6 mph8.6 mph6.4 mph6.6 mph7.4 mph8.1 mph9.3 mph10.5 mph12.1 mph12.8 mph12.4 mph13 mph10.3 mph11.8 mph13.4 mph12.4 mph12.4 mph12.7 mph12.3 mph12.4 mph15.5 mph15.6 mph15.7 mph14.2 mph14.3 mph12.3 mph9.8 mph9.6 mph8.9 mph10 mph9.4 mph10.2 mph15.2 mph13.5 mph11.8 mph12.9 mph11.8 mph10 mph12 mph
Wind
Direction
184°
S
186°
S
192°
SSW
196°
SSW
192°
SSW
204°
SSW
203°
SSW
195°
SSW
188°
S
206°
SSW
217°
SW
205°
SSW
201°
SSW
209°
SSW
221°
SW
235°
SW
241°
WSW
238°
WSW
234°
SW
226°
SW
231°
SW
233°
SW
228°
SW
235°
SW
226°
SW
212°
SSW
219°
SW
223°
SW
217°
SW
210°
SSW
217°
SW
218°
SW
225°
SW
227°
SW
236°
SW
237°
WSW
229°
SW
227°
SW
228°
SW
235°
SW
237°
WSW
254°
WSW
260°
W
254°
WSW
266°
W
282°
WNW
290°
WNW
301°
WNW

Daily Forecast

Date High Low Precip. Humidity
Today
Jun 14

Rain
83 °F
76 °F
100%
78%
Saturday
Jun 15

Rain
83 °F
77 °F
100%
78%
Sunday
Jun 16

Rain
82 °F
77 °F
41%
84%
Monday
Jun 17

Rain
85 °F
78 °F
20%
72%
Tuesday
Jun 18

Rain
83 °F
79 °F
100%
72%
Wednesday
Jun 19

Rain
81 °F
78 °F
100%
71%
Thursday
Jun 20

Rain
83 °F
78 °F
100%
70%
Friday
Jun 21

Rain
84 °F
78 °F
100%
74%
Saturday
Jun 22

Rain
85 °F
79 °F
31%
69%
Sunday
Jun 23

Rain
85 °F
79 °F
100%
73%
Monday
Jun 24

Rain
85 °F
79 °F
100%
76%
Tuesday
Jun 25

Rain
81 °F
79 °F
100%
80%
Wednesday
Jun 26

Rain
81 °F
79 °F
100%
73%
Thursday
Jun 27

Clouds
82 °F
79 °F
0%
81%
Friday
Jun 28

Rain
85 °F
79 °F
52%
73%
Saturday
Jun 29

Clear
86 °F
79 °F
0%
67%

Temperature 8-14 Day Outlook



Precipitation 8-14 Day Outlook






About Us
Contact Us
Site Map
Search Site
Advertise With Us
   
Okeechobee.USLakes.info
THE LAKE OKEECHOBEE WEBSITE

Copyright 2024, Lakes Online
Privacy    |    Legal